Regional Weather Roundup
Issued by NWS

Home | Current Version | Previous Version | Graphics & Text | Print | Product List | Glossary On
Versions: 1 2 3 4 5 6 7 8 9 10 11 12 13 14 15 16 17 18 19 20 21 22 23 24 25 26 27 28 29 30 31 32 33 34 35 36 37 38 39 40 41 42 43 44 45 46 47 48 49 50
056
ASUS43 KOAX 051610
RWRNE

WEATHER ROUNDUP FOR NEBRASKA
NATIONAL WEATHER SERVICE OMAHA NE
1000 AM CST FRI FEB 05 2016

NOTES: SATELLITE DATA IS BEING USED TO AUGMENT CLOUD COVER ABOVE
       12000 FEET.
       "FAIR" INDICATES FEW OR NO CLOUDS BELOW 12,000 FEET WITH NO
       SIGNIFICANT WEATHER AND/OR OBSTRUCTIONS TO VISIBILITY.

  * THESE STATIONS DO NOT REPORT WEATHER SUCH AS RAIN...SNOW OR FOG.

NEZ001>004-019>022-054>056-051700-
NEBRASKA PANHANDLE

CITY           SKY/WX    TMP DP  RH WIND       PRES   REMARKS
SCOTTSBLUFF    CLOUDY    22  12  65 NW14      30.29R WCI   9
ALLIANCE       MOSUNNY   24  18  77 W18       30.22R WCI  10
CHADRON        CLOUDY    32  23  69 W22G29    30.25R WCI  19
KIMBALL        SUNNY     22  13  68 W16       30.27S WCI   9
SIDNEY         SUNNY     21  13  71 W10       30.27R WCI  10
$$

NEZ057>060-069>072-079>082-051700-
SOUTHWEST NEBRASKA

CITY           SKY/WX    TMP DP  RH WIND       PRES   REMARKS
NORTH PLATTE   SUNNY     29  20  69 W14       30.23R WCI  18
IMPERIAL       SUNNY     28  17  63 W14       30.27R WCI  17
LEXINGTON      SUNNY     33  28  79 W10       30.24R WCI  25
MCCOOK         PTSUNNY   34  27  75 W14       30.28R WCI  25
OGALLALA       SUNNY     29  19  67 NW17      30.24F WCI  17
$$

NEZ005>010-023>029-035>040-094-051700-
NORTH CENTRAL NEBRASKA

CITY           SKY/WX    TMP DP  RH WIND       PRES   REMARKS
VALENTINE      CLOUDY    33  24  69 W15       30.19R WCI  23
AINSWORTH      CLOUDY    32  26  77 W10       30.18R WCI  24
BROKEN BOW     MOSUNNY   31  24  75 W6        30.21R WCI  25
O`NEILL        CLOUDY    32  26  77 SW7       30.18S WCI  25
ORD            CLOUDY    28  25  88 CALM      30.21R
THEDFORD       CLOUDY    31  23  73 W9        30.21R WCI  23
$$

NEZ041-046>049-061>064-073>077-083>087-051700-
SOUTH CENTRAL NEBRASKA

CITY           SKY/WX    TMP DP  RH WIND       PRES   REMARKS
GRAND ISLAND   LGT SNOW  29  26  89 SW14      30.26S FOG     WCI  18
AURORA         LGT SNOW  27  26  96 SW12      30.27S WCI  17
HASTINGS       LGT SNOW  27  23  85 SW10G21   30.27R FOG     WCI  17
HEBRON         LGT SNOW  26  23  88 S13       30.32F WCI  15
HOLDREGE       PTSUNNY   28  26  89 SW10      30.25F WCI  19
KEARNEY *      CLOUDY    30 -18  11 SW13      30.25S WCI  20
YORK           LGT SNOW  25  25 100 S12       30.29S WCI  14
$$

NEZ011>018-030>034-042>045-051700-
NORTHEAST NEBRASKA

CITY           SKY/WX    TMP DP  RH WIND       PRES   REMARKS
NORFOLK        CLOUDY    26  22  84 S18       30.24S WCI  13
ALBION         CLOUDY    26  23  87 S7        30.24S WCI  18
BLAIR          CLOUDY    26  21  82 S13       30.32S WCI  15
COLUMBUS *     CLOUDY    25  16  68 S10       30.29S WCI  15
FREMONT        LGT SNOW  24  20  83 S12       30.32S WCI  13
TEKAMAH        CLOUDY    22  19  89 S8        30.34F WCI  12
WAYNE          CLOUDY    25  22  87 S18       30.26S WCI  12
$$

NEZ050>053-065>068-078-088>093-051700-
SOUTHEAST NEBRASKA

CITY           SKY/WX    TMP DP  RH WIND       PRES   REMARKS
LINCOLN        LGT SNOW  26  23  88 S13       30.34S VSB 1   WCI  15
OMAHA EPPLEY   CLOUDY    25  21  85 S13       30.36F WCI  14
BEATRICE       CLOUDY    27  22  81 S12       30.35F WCI  17
FALLS CITY     CLOUDY    28  22  78 S6        30.40F WCI  22
NEBRASKA CITY  CLOUDY    26  23  87 S9        30.37F WCI  17
PLATTSMOUTH    CLOUDY    25  20  84 S13       30.35F WCI  13
$$

NEZ044-045-051>053-067-051700-
OMAHA AREA

CITY           SKY/WX    TMP DP  RH WIND       PRES   REMARKS
OMAHA EPPLEY   CLOUDY    25  21  85 S13       30.36F WCI  14
BLAIR          CLOUDY    26  21  82 S13       30.32S WCI  15
FREMONT        LGT SNOW  24  20  83 S12       30.32S WCI  13
MILLARD        CLOUDY    27  20  77 S8        30.35S WCI  18
OFFUTT AFB     CLOUDY    26  22  85 S7        30.36S WCI  18
PLATTSMOUTH    CLOUDY    25  20  84 S13       30.35F WCI  13
WAHOO          LGT SNOW  24  22  93 S9        30.33F WCI  14
$$




USA.gov is the U.S. government's official web portal to all federal, state and local government web resources and services.